Tracking 19792 objects as of 16-Jul-2019
HD Live streaming from Space Station
objects crossing your sky now

SL-16 DEB

Track SL-16 DEB now!
10-day predictions


NORAD ID: 22613
Int'l Code: 1993-016X
Perigee: 843.9 km
Apogee: 1,134.1 km
Inclination: 71.0 °
Period: 104.7 minutes
Semi major axis: 7359 km
RCS: 0.0769 m2 (small)
Launch date: March 26, 1993
Source: Commonwealth of Independent States (former USSR) (CIS)
Launch site: TYURATAM MISSILE AND SPACE COMPLEX (TTMTR)

Note: This is SATELLITE DEBRIS
aabbcc
Your satellite tracking list
Your tracking list is empty




NASA's NSSDC Master Catalog

Two Line Element Set (TLE):
1 22613U 93016X   19196.71951572 +.00000073 +00000-0 +10497-3 0  9990
2 22613 070.9977 200.0473 0197119 168.2820 302.8577 13.74949733317188
Source of the keplerian elements: AFSPC